STARLINK-1042, 44747

Orbit data source: Space-Track

STARLINK-1042, 44747 is a payload satellite owned by SpaceX/Seattle (US) in LEO that was launched on Mon, 11 Nov 2019 UTC via an FALCON 9 launch vehicle from the Air Force Eastern Test Range (AFETR). Payloads include a variety of satellites, spacecraft, and rockets equipped with specific instruments for various scientific and technological missions. These include communications satellites like Starlink; space stations such as the ISS; scientific satellites like the Hubble; Earth observation satellites from companies like Planet Labs, Umbra, and HawkEye 360; GPS; miniature CubeSats for education and research; and military/defense satellites.

Loading next visibility...
STARLINK-1042 details
Identifier
44747, 2019-074AL
Orbit
LEO
Last TLE update1 day ago
Origin
Flag of USSpaceX/Seattle (US)
ManufacturerSpaceX/Seattle
MissionPartially operational Commercial Communications
Bus & MotorSTARLINK, Unknown motor
Mass260 kg wet, ~248 kg dry
Launch date (UTC)
2019-11-11 (5 years ago)
Launch vehicle
FALCON 9
Launch site
Air Force Eastern Test Range (AFETR)
Object type
Payload
Rocket body
Debris
Shape & HBRBox + 1 Pan, 8.86 m
Radar Cross Section13.562 m², Large (>1 m²)

Expand to show TLE details & history

TLE from 1 day ago
0 STARLINK-1042
1 44747U 19074AL  24360.44141964  .00037568  00000-0  12959-2 0  9992
2 44747  53.0543  10.5591 0001719 215.3534 144.7352 15.29647149282398
Epoch: 2024-12-25T10:35Z
Definitive object data (Epoch: 2024-12-25T10:35:38.656Z)
Latitude0.00001°
Longitude117.21292°
Altitude478.717 km
Speed7.627 km/s
True Right ascension00h 42m 14s
True Declination0° 00' 00"
Sunlit
Object was in daylight at TLE epoch
Visualization TLE readout
Latitude14.4853°
Longitude123.77706°
Altitude477.905 km
Speed7.629 km/s
Apparent Right ascension23h 38m 11s
Apparent Declination-12° 55' 17"
Sunlit
Object is in daylight
Visualization observer readout
Local Sidereal Time09:32:47
Azimuth305.564° NW
Elevation-51.434°
Doppler factor1
Orbital elements
Apogee altitude478.318 km
Perigee altitude475.961 km
Semi-major axis6,855.277 km
Eccentricity0.0001719
Inclination53.0543°
RAAN10.5591°
Arg. of periapsis215.3534°
True anomaly144.74657°
Mean anomaly144.7352°
Eccentric anomaly144.74089°
Mean motion3.82389 °/min
BSTAR0.0012959
Orbital period94.14 mins
Loading maneuver chart data...

STARLINK-1042 Visibility forecast

Observer location: undefined°, undefined

Span
Click to sort rows by Start time (UTC) header in descending order
Start Az.
Max El. time (UTC)
Max El. Az.
Max El.
End time (UTC)
End Az.
6 mins2024-12-26 10:37:38.431Z303.199° NW2024-12-26 10:40:38.431Z205.316° SW42.434°2024-12-26 10:43:38.431Z141.182° SSE
6 mins2024-12-27 03:33:38.431Z241.396° WSW2024-12-27 03:36:38.431Z2.414° NNE41.182°2024-12-27 03:39:38.431Z45.152° ENE
4 mins2024-12-27 08:31:38.431Z352.114° N2024-12-27 08:32:38.431Z12.298° NNE18.413°2024-12-27 08:35:38.431Z69.647° E
|